GW2805 Weather Reports


time (UTC)temp
F
wind
direction
speed
knots
gust
knots
rain 1hr
in
rain 24hr
in
rain mn
in
humidity
%
barometer
mb
20260901200821 73 0 4.3 5.2 0.00 0.00 0.00 47 1016.6
20260901200321 73 0 3.5 7.8 0.00 0.00 0.00 47 1016.6
20260901195821 72 0 4.3 7.8 0.00 0.00 0.00 48 1016.7
20260901195602 73 0 5.2 7.8 0.00 0.00 0.00 47 1016.7
20260901194821 72 0 4.3 6.1 0.00 0.00 0.00 48 1016.6
20260901194320 72 0 2.6 5.2 0.00 0.00 0.00 49 1016.7
20260901193819 71 0 1.7 10.4 0.00 0.00 0.00 50 1016.7
20260901193320 70 0 2.6 10.4 0.00 0.00 0.00 51 1016.7
20260901193057 70 0 6.1 9.6 0.00 0.00 0.00 51 1016.7
20260901192319 70 0 4.3 8.7 0.00 0.00 0.00 51 1016.7
20260901191820 70 0 2.6 6.1 0.00 0.00 0.00 51 1016.8
20260901191320 70 0 1.7 6.1 0.00 0.00 0.00 51 1016.9
20260901190820 70 0 1.7 7.8 0.00 0.00 0.00 51 1016.9
20260901190319 70 0 1.7 7.8 0.00 0.00 0.00 50 1016.8
20260901185819 71 0 2.6 7.8 0.00 0.00 0.00 51 1016.8
20260901185319 71 0 4.3 7.8 0.00 0.00 0.00 50 1016.8
20260901184819 71 0 1.7 3.5 0.00 0.00 0.00 49 1016.9
20260901184319 71 0 1.7 3.5 0.00 0.00 0.00 49 1016.8
20260901184057 71 0 1.7 5.2 0.00 0.00 0.00 49 1016.8
20260901183318 71 0 2.6 7.8 0.00 0.00 0.00 49 1016.7
20260901182818 70 0 4.3 7.8 0.00 0.00 0.00 51 1016.7
20260901182318 69 0 2.6 4.3 0.00 0.00 0.00 53 1016.8
20260901182057 68 0 1.7 4.3 0.00 0.00 0.00 53 1016.8
20260901181317 67 0 1.7 7.8 0.00 0.00 0.00 54 1016.8
20260901180818 67 0 4.3 7.8 0.00 0.00 0.00 54 1016.9
20260901180317 67 0 3.5 6.1 0.00 0.00 0.00 54 1016.9
20260901180057 67 0 1.7 6.1 0.00 0.00 0.00 55 1016.9
20260901175317 67 0 2.6 8.7 0.00 0.00 0.00 56 1016.8
20260901174818 67 0 4.3 8.7 0.00 0.00 0.00 57 1016.9
20260901174317 66 0 2.6 6.1 0.00 0.00 0.00 57 1016.8
20260901173816 66 0 0.9 6.1 0.00 0.00 0.00 58 1016.8
20260901173554 66 0 1.7 6.1 0.00 0.00 0.00 58 1016.7
20260901172815 66 0 3.5 6.1 0.00 0.00 0.00 58 1016.7
20260901172315 65 0 2.6 4.3 0.00 0.00 0.00 58 1016.6
20260901171815 65 0 2.6 8.7 0.00 0.00 0.00 58 1016.6
20260901171315 65 0 2.6 8.7 0.00 0.00 0.00 58 1016.5
20260901170814 65 0 1.7 5.2 0.00 0.00 0.00 59 1016.5
20260901170314 65 0 1.7 3.5 0.00 0.00 0.00 60 1016.5
20260901165816 65 0 1.7 6.1 0.00 0.00 0.00 60 1016.6
20260901165554 65 0 1.7 6.1 0.00 0.00 0.00 60 1016.5
20260901164814 65 0 1.7 4.3 0.00 0.00 0.00 60 1016.5
20260901164314 65 0 1.7 2.6 0.00 0.00 0.00 60 1016.2
20260901163814 65 0 0.0 4.3 0.00 0.00 0.00 62 1016.3
20260901163314 65 0 0.9 6.1 0.00 0.00 0.00 62 1016.3
20260901162814 64 0 3.5 6.1 0.00 0.00 0.00 61 1016.2
20260901162313 65 0 1.7 4.3 0.00 0.00 0.00 61 1016.2
20260901162054 65 0 2.6 4.3 0.00 0.00 0.00 61 1016.2
20260901161314 65 0 0.9 3.5 0.00 0.00 0.00 61 1016.1
20260901160839 65 0 0.9 3.5 0.00 0.00 0.00 61 1016.3
20260901160830 65 0 0.9 2.6 0.00 0.00 0.00 61 1016.2
20260901155815 64 0 1.7 3.5 0.00 0.00 0.00 63 1016.2
20260901155314 64 0 0.9 2.6 0.00 0.00 0.00 62 1016.2
20260901154814 64 0 0.9 1.7 0.00 0.00 0.00 64 1016.1
20260901154552 64 0 0.0 2.6 0.00 0.00 0.00 65 1016.1
20260901153814 63 0 0.9 2.6 0.00 0.00 0.00 66 1016.1
20260901153314 63 0 1.7 3.5 0.00 0.00 0.00 66 1016.0
20260901152814 62 0 0.9 3.5 0.00 0.00 0.00 66 1016.0
20260901152313 62 0 0.9 2.6 0.00 0.00 0.00 68 1015.9
20260901151814 62 0 0.9 2.6 0.00 0.00 0.00 68 1015.9
20260901151313 62 0 1.7 2.6 0.00 0.00 0.00 68 1015.8
20260901150813 62 0 1.7 2.6 0.00 0.00 0.00 68 1015.8
20260901150314 62 0 1.7 2.6 0.00 0.00 0.00 68 1015.8
20260901145813 62 0 0.9 3.5 0.00 0.00 0.00 68 1015.8
20260901145313 61 0 0.9 4.3 0.00 0.00 0.00 68 1015.7
20260901144812 61 0 2.6 4.3 0.00 0.00 0.00 68 1015.6
20260901144312 61 0 0.9 2.6 0.00 0.00 0.00 69 1015.6
20260901143813 61 0 0.9 4.3 0.00 0.00 0.00 69 1015.5
20260901143551 61 0 1.7 4.3 0.00 0.00 0.00 69 1015.5
20260901142809 61 0 0.9 3.5 0.00 0.00 0.00 68 1015.4
20260901142545 61 0 1.7 3.5 0.00 0.00 0.00 68 1015.3
20260901141802 61 0 0.9 2.6 0.00 0.00 0.00 68 1015.2
20260901141548 61 0 1.7 5.2 0.00 0.00 0.00 68 1015.2
20260901140803 61 0 1.7 5.2 0.00 0.00 0.00 68 1015.0
20260901140542 61 0 1.7 3.5 0.00 0.00 0.00 68 1015.1
20260901140043 61 0 1.7 3.5 0.00 0.00 0.00 69 1014.9
20260901135305 61 0 1.7 3.5 0.00 0.00 0.00 69 1015.0
20260901135043 60 0 0.9 1.7 0.00 0.00 0.00 69 1014.9
20260901134543 60 0 0.9 1.7 0.00 0.00 0.00 69 1014.8
20260901133803 61 0 0.9 1.7 0.00 0.00 0.00 69 1014.8
20260901133303 61 0 0.9 3.5 0.00 0.00 0.00 69 1014.8
20260901132803 61 0 1.7 3.5 0.00 0.00 0.00 69 1014.8
20260901132306 60 0 0.9 2.6 0.00 0.00 0.00 69 1014.7
20260901131803 60 0 0.9 4.3 0.00 0.00 0.00 69 1014.8
20260901131326 60 0 1.7 4.3 0.00 0.00 0.00 69 1014.6
20260901131316 60 0 1.7 4.3 0.00 0.00 0.00 69 1014.7
20260901130259 60 0 1.7 3.5 0.00 0.00 0.00 69 1014.7
20260901125759 60 0 1.7 3.5 0.00 0.00 0.00 69 1014.6
20260901125259 60 0 1.7 3.5 0.00 0.00 0.00 69 1014.5
20260901125036 60 0 2.6 3.5 0.00 0.00 0.00 70 1014.5
20260901124257 60 0 1.7 3.5 0.00 0.00 0.00 69 1014.4
20260901123756 60 0 2.6 3.5 0.00 0.00 0.00 69 1014.4
20260901123254 60 0 1.7 5.2 0.00 0.00 0.00 69 1014.4
20260901122754 60 0 2.6 6.1 0.00 0.00 0.00 70 1014.3
20260901122534 61 0 3.5 6.1 0.00 0.00 0.00 70 1014.2
20260901121753 61 0 3.5 4.3 0.00 0.00 0.00 69 1014.3
20260901121253 61 0 1.7 3.5 0.00 0.00 0.00 69 1014.3
20260901120753 61 0 1.7 1.7 0.00 0.00 0.00 69 1014.3
20260901120532 61 0 0.9 2.6 0.00 0.00 0.00 69 1014.4
20260901120023 61 0 0.9 2.6 0.00 0.00 0.00 69 1014.4
20260901115237 61 0 0.0 0.9 0.00 0.00 0.00 69 1014.4
20260901114735 61 0 0.0 0.9 0.00 0.00 0.00 69 1014.5
20260901114236 61 0 0.0 0.9 0.00 0.00 0.00 69 1014.5
20260901114014 61 0 0.0 0.9 0.00 0.00 0.00 69 1014.4
20260901113233 61 0 0.0 0.9 0.00 0.00 0.00 69 1014.5
20260901112731 61 0 0.0 0.9 0.00 0.00 0.00 68 1014.6
20260901112231 61 0 0.0 0.9 0.00 0.00 0.00 68 1014.6
20260901111732 61 0 0.0 0.9 0.00 0.00 0.00 68 1014.6
20260901111232 61 0 0.0 2.6 0.00 0.00 0.00 68 1014.8
20260901110731 61 0 0.9 2.6 0.00 0.00 0.00 68 1014.6
20260901110511 61 0 0.0 1.7 0.00 0.00 0.00 68 1014.6
20260901105732 61 0 0.9 2.6 0.00 0.00 0.00 68 1014.7
20260901105232 61 0 0.9 2.6 0.00 0.00 0.00 68 1014.6
20260901104732 61 0 0.9 2.6 0.00 0.00 0.00 68 1014.7
20260901104231 61 0 0.9 1.7 0.00 0.00 0.00 68 1014.6
20260901103731 61 0 0.0 2.6 0.00 0.00 0.00 68 1014.6
20260901103232 61 0 1.7 2.6 0.00 0.00 0.00 68 1014.5
20260901102733 61 0 0.9 1.7 0.00 0.00 0.00 69 1014.5
20260901102512 61 0 0.0 1.7 0.00 0.00 0.00 69 1014.5
20260901101715 61 0 0.0 1.7 0.00 0.00 0.00 69 1014.4
20260901101213 61 0 0.9 2.6 0.00 0.00 0.00 69 1014.5
20260901101016 61 0 0.9 2.6 0.00 0.00 0.00 69 1014.4
20260901101011 61 0 0.0 2.6 0.00 0.00 0.00 69 1014.3
20260901095712 61 0 0.9 1.7 0.00 0.00 0.00 69 1014.4
20260901095454 61 0 0.9 1.7 0.00 0.00 0.00 69 1014.4
20260901094712 61 0 0.0 5.2 0.00 0.00 0.00 69 1014.4
20260901094210 61 0 1.7 5.2 0.00 0.00 0.00 69 1014.4
20260901093710 61 0 3.5 5.2 0.00 0.00 0.00 70 1014.4
20260901093446 61 0 0.9 1.7 0.00 0.00 0.00 70 1014.4
20260901092705 61 0 0.0 2.6 0.00 0.00 0.00 70 1014.3
20260901092441 61 0 0.9 2.6 0.00 0.00 0.00 70 1014.4
20260901091705 61 0 0.0 0.9 0.00 0.00 0.00 71 1014.4
20260901091205 61 0 0.0 0.9 0.00 0.00 0.00 70 1014.5
20260901090704 61 0 0.0 3.5 0.00 0.00 0.00 71 1014.5
20260901090204 60 0 0.0 6.1 0.00 0.00 0.00 72 1014.5
20260901085704 60 0 3.5 6.1 0.00 0.00 0.00 72 1014.5
20260901085442 60 0 0.9 2.6 0.00 0.00 0.00 73 1014.5
20260901084703 60 0 0.0 1.7 0.00 0.00 0.00 73 1014.5
20260901084203 60 0 0.9 1.7 0.00 0.00 0.00 74 1014.4
20260901083703 60 0 0.9 1.7 0.00 0.00 0.00 74 1014.6
20260901083203 60 0 0.0 1.7 0.00 0.00 0.00 74 1014.5
20260901082704 60 0 0.0 1.7 0.00 0.00 0.00 74 1014.5
20260901082506 59 0 0.0 0.9 0.00 0.00 0.00 74 1014.5
20260901082459 59 0 0.0 0.0 0.00 0.00 0.00 74 1014.5
20260901081203 59 0 0.0 0.9 0.00 0.00 0.00 74 1014.5
20260901080941 59 0 0.0 0.9 0.00 0.00 0.00 75 1014.4
20260901080202 59 0 0.0 1.7 0.00 0.00 0.00 75 1014.4
20260901075725 59 0 0.9 0.9 0.00 0.00 0.00 75 1014.4
20260901075716 59 0 0.9 1.7 0.00 0.00 0.00 75 1014.4
20260901074702 59 0 0.0 0.0 0.00 0.00 0.00 75 1014.5
20260901074202 59 0 0.0 0.9 0.00 0.00 0.00 75 1014.5
20260901073701 59 0 0.0 0.9 0.00 0.00 0.00 75 1014.5
20260901073202 59 0 0.0 1.7 0.00 0.00 0.00 76 1014.5
20260901072702 59 0 0.0 2.6 0.00 0.00 0.00 76 1014.4
20260901072441 58 0 0.9 2.6 0.00 0.00 0.00 77 1014.5
20260901071701 58 0 1.7 2.6 0.00 0.00 0.00 78 1014.4
20260901071201 58 0 0.9 2.6 0.00 0.00 0.00 78 1014.5
20260901070702 57 0 0.9 2.6 0.00 0.00 0.00 79 1014.4
20260901070438 57 0 1.7 2.6 0.00 0.00 0.00 79 1014.4
20260901065701 56 0 1.7 2.6 0.00 0.00 0.00 79 1014.5
20260901065202 56 0 0.0 1.7 0.00 0.00 0.00 79 1014.5
20260901064700 56 0 0.0 2.6 0.00 0.00 0.00 79 1014.6
20260901064200 56 0 1.7 2.6 0.00 0.00 0.00 79 1014.6
20260901063941 56 0 0.0 0.9 0.00 0.00 0.00 79 1014.6
20260901063200 56 0 0.9 0.9 0.00 0.00 0.00 79 1014.7
20260901062701 56 0 0.0 0.9 0.00 0.00 0.00 79 1014.6
20260901062200 56 0 0.0 1.7 0.00 0.00 0.00 78 1014.6
20260901061700 56 0 0.0 1.7 0.00 0.00 0.00 78 1014.6
20260901061201 56 0 0.0 1.7 0.00 0.00 0.00 78 1014.6
20260901060659 56 0 0.0 1.7 0.00 0.00 0.00 78 1014.7
20260901060200 56 0 0.0 1.7 0.00 0.00 0.00 78 1014.7
20260901055659 56 0 0.0 1.7 0.00 0.00 0.00 78 1014.8
20260901055159 56 0 0.0 0.9 0.00 0.00 0.00 78 1014.7
20260901054659 56 0 0.0 0.9 0.00 0.00 0.00 78 1014.8
20260901054158 56 0 0.0 2.6 0.00 0.00 0.00 78 1014.8
20260901053658 56 0 0.0 2.6 0.00 0.00 0.00 78 1014.8
20260901053159 56 0 0.0 1.7 0.00 0.00 0.00 78 1014.9
20260901052938 56 0 0.9 2.6 0.00 0.00 0.00 78 1014.9
20260901052437 56 0 1.7 2.6 0.00 0.00 0.00 78 1014.9
20260901051659 56 0 0.9 1.7 0.00 0.00 0.00 78 1014.7
20260901051159 56 0 0.9 2.6 0.00 0.00 0.00 78 1014.6
20260901050658 56 0 1.7 2.6 0.00 0.00 0.00 78 1014.7
20260901050158 56 0 1.7 2.6 0.00 0.00 0.00 77 1014.6
20260901045700 56 0 1.7 2.6 0.00 0.00 0.00 77 1014.6
20260901045436 56 0 1.7 2.6 0.00 0.00 0.00 77 1014.6
20260901044659 56 0 1.7 2.6 0.00 0.00 0.00 76 1014.6
20260901044157 57 0 1.7 2.6 0.00 0.00 0.00 76 1014.4
20260901043659 57 0 1.7 2.6 0.00 0.00 0.00 76 1014.4
20260901043158 57 0 0.9 1.7 0.00 0.00 0.00 75 1014.3
20260901042658 57 0 0.9 1.7 0.00 0.00 0.00 75 1014.4
20260901042434 58 0 0.9 1.7 0.00 0.00 0.00 74 1014.2
20260901041936 58 0 0.9 1.7 0.00 0.00 0.00 74 1014.4
20260901041156 58 0 0.9 1.7 0.00 0.00 0.00 73 1014.3
20260901040933 59 0 0.0 0.9 0.00 0.00 0.00 72 1014.3
20260901040156 59 0 0.0 0.9 0.00 0.00 0.00 72 1014.3
20260901035656 60 0 0.0 0.9 0.00 0.00 0.00 72 1014.2
20260901035157 60 0 0.0 1.7 0.00 0.00 0.00 72 1014.1
20260901034936 60 0 0.0 1.7 0.00 0.00 0.00 72 1014.2
20260901034155 60 0 0.9 0.9 0.00 0.00 0.00 71 1014.1
20260901033935 60 0 0.0 0.9 0.00 0.00 0.00 71 1014.0
20260901033156 60 0 0.0 0.9 0.00 0.00 0.00 70 1013.9
20260901032654 61 0 0.0 0.0 0.00 0.00 0.00 69 1013.9
20260901032155 61 0 0.0 0.0 0.00 0.00 0.00 69 1013.8
20260901031654 62 0 0.0 1.7 0.00 0.00 0.00 69 1013.8
20260901031154 62 0 0.9 1.7 0.00 0.00 0.00 69 1013.7
20260901030654 62 0 0.0 2.6 0.00 0.00 0.00 68 1013.6
20260901030432 62 0 0.0 2.6 0.00 0.00 0.00 68 1013.6
20260901025654 62 0 1.7 2.6 0.00 0.00 0.00 68 1013.5
20260901025433 62 0 0.9 3.5 0.00 0.00 0.00 68 1013.6
20260901024654 62 0 0.9 3.5 0.00 0.00 0.00 68 1013.7
20260901024154 62 0 0.9 4.3 0.00 0.00 0.00 67 1013.6
20260901023653 63 0 1.7 4.3 0.00 0.00 0.00 67 1013.6
20260901023153 63 0 0.9 4.3 0.00 0.00 0.00 67 1013.5
20260901022653 63 0 1.7 5.2 0.00 0.00 0.00 67 1013.6
20260901022153 63 0 2.6 5.2 0.00 0.00 0.00 66 1013.5
20260901021653 64 0 2.6 3.5 0.00 0.00 0.00 66 1013.4
20260901021152 64 0 0.9 4.3 0.00 0.00 0.00 65 1013.4
20260901020932 64 0 1.7 4.3 0.00 0.00 0.00 65 1013.4
20260901020155 64 0 1.7 4.3 0.00 0.00 0.00 65 1013.3
20260901015653 64 0 1.7 4.3 0.00 0.00 0.00 65 1013.4
20260901015155 65 0 0.9 4.3 0.00 0.00 0.00 64 1013.5
20260901014654 65 0 2.6 5.2 0.00 0.00 0.00 64 1013.3
20260901014154 65 0 3.5 6.1 0.00 0.00 0.00 64 1013.3
20260901013653 65 0 1.7 7.8 0.00 0.00 0.00 63 1013.4
20260901013153 66 0 2.6 7.8 0.00 0.00 0.00 63 1013.4
20260901012653 66 0 3.5 6.1 0.00 0.00 0.00 62 1013.4
20260901012153 67 0 2.6 7.8 0.00 0.00 0.00 62 1013.4
20260901011653 67 0 2.6 7.8 0.00 0.00 0.00 61 1013.4
20260901011153 67 0 1.7 8.7 0.00 0.00 0.00 61 1013.4
20260901010654 67 0 2.6 11.3 0.00 0.00 0.00 62 1013.4
20260901010431 67 0 4.3 11.3 0.00 0.00 0.00 61 1013.3
20260901005653 68 0 4.3 12.2 0.00 0.00 0.00 61 1013.3
20260901005152 68 0 5.2 12.2 0.00 0.00 0.00 60 1013.3
20260901004653 69 0 3.5 9.6 0.00 0.00 0.00 59 1013.2
20260901004152 69 0 4.3 9.6 0.00 0.00 0.00 59 1013.1
20260901003652 69 0 3.5 8.7 0.00 0.00 0.00 59 1013.1
20260901003151 70 0 4.3 8.7 0.00 0.00 0.00 57 1013.2
20260901002651 71 0 2.6 9.6 0.00 0.00 0.00 56 1013.1
20260901002152 71 0 3.5 9.6 0.00 0.00 0.00 56 1013.1
20260901001649 71 0 4.3 9.6 0.00 0.00 0.00 56 1013.2
20260901001150 71 0 4.3 8.7 0.00 0.00 0.00 55 1013.1
20260901000927 71 0 3.5 8.7 0.00 0.00 0.00 55 1013.1
20260901000429 71 0 3.5 13.0 0.00 0.00 0.00 55 1013.1
20260831235716 71 0 4.3 11.3 0.00 0.00 0.00 54 1013.2
20260831235706 71 0 6.1 13.0 0.00 0.00 0.00 54 1013.1
20260831234649 71 0 6.1 10.4 0.00 0.00 0.00 55 1013.2
20260831234149 72 0 4.3 9.6 0.00 0.00 0.00 54 1013.1
20260831233648 72 0 2.6 9.6 0.00 0.00 0.00 55 1013.2
20260831233149 71 0 4.3 11.3 0.00 0.00 0.00 55 1013.3
20260831232648 71 0 3.5 11.3 0.00 0.00 0.00 55 1013.5
20260831232148 71 0 4.3 12.2 0.00 0.00 0.00 56 1013.4
20260831231926 71 0 4.3 13.9 0.00 0.00 0.00 56 1013.4
20260831231148 71 0 7.0 13.9 0.00 0.00 0.00 55 1013.4
20260831230648 72 0 4.3 10.4 0.00 0.00 0.00 54 1013.4
20260831230148 73 0 4.3 11.3 0.00 0.00 0.00 54 1013.5
20260831225648 72 0 2.6 11.3 0.00 0.00 0.00 56 1013.5
20260831225148 72 0 3.5 11.3 0.00 0.00 0.00 55 1013.5
20260831224648 73 0 5.2 10.4 0.00 0.00 0.00 55 1013.6
20260831224148 71 0 3.5 9.6 0.00 0.00 0.00 55 1013.6
20260831223647 72 0 2.6 9.6 0.00 0.00 0.00 56 1013.6
20260831223147 72 0 3.5 9.6 0.00 0.00 0.00 56 1013.6
20260831222647 71 0 3.5 10.4 0.00 0.00 0.00 57 1013.7
20260831222147 71 0 3.5 12.2 0.00 0.00 0.00 56 1013.7
20260831221932 72 0 4.3 12.2 0.00 0.00 0.00 57 1013.9
20260831221146 72 0 2.6 8.7 0.00 0.00 0.00 56 1013.9
20260831220648 72 0 3.5 8.7 0.00 0.00 0.00 57 1013.9
20260831220148 71 0 4.3 10.4 0.00 0.00 0.00 58 1013.9
20260831215925 71 0 4.3 10.4 0.00 0.00 0.00 57 1014.1
20260831215147 71 0 3.5 10.4 0.00 0.00 0.00 58 1014.2
20260831214647 71 0 3.5 8.7 0.00 0.00 0.00 58 1014.2
20260831214147 71 0 4.3 7.8 0.00 0.00 0.00 58 1014.1
20260831213647 71 0 3.5 7.8 0.00 0.00 0.00 59 1014.2
20260831213147 71 0 2.6 7.8 0.00 0.00 0.00 58 1014.3
20260831212646 71 0 2.6 12.2 0.00 0.00 0.00 58 1014.3
20260831212147 71 0 5.2 12.2 0.00 0.00 0.00 59 1014.4
20260831211925 71 0 3.5 7.8 0.00 0.00 0.00 57 1014.4
20260831211148 72 0 2.6 9.6 0.00 0.00 0.00 57 1014.6
20260831210646 71 0 5.2 9.6 0.00 0.00 0.00 57 1014.7
20260831210424 71 0 1.7 8.7 0.00 0.00 0.00 58 1014.7
20260831205647 71 0 2.6 9.6 0.00 0.00 0.00 60 1014.7
20260831205146 70 0 2.6 9.6 0.00 0.00 0.00 59 1014.7
20260831204645 69 0 2.6 8.7 0.00 0.00 0.00 62 1014.7
20260831204146 69 0 1.7 8.7 0.00 0.00 0.00 63 1014.8
20260831203646 68 0 3.5 7.8 0.00 0.00 0.00 63 1014.7
20260831203146 68 0 4.3 7.8 0.00 0.00 0.00 62 1014.7
20260831202646 68 0 1.7 8.7 0.00 0.00 0.00 63 1014.8
20260831202145 67 0 2.6 5.2 0.00 0.00 0.00 64 1014.9
20260831201645 67 0 3.5 6.1 0.00 0.00 0.00 64 1014.9